User: anonymous   Login
Location: Unspecified
(0.0000°N, 0.0000°E)
Time: 09:57:00
(UTC+00:00)
Language:

Alouette 1 - Orbit

View from above orbital plane
View from above orbital plane
View from above satellite
View from above satellite

Ground track
Ground track

The orbit data is extracted from the following two-line orbital elements,

1 00424U 62049A   16345.79254112  .00000031  00000-0  25147-4 0  9998
2 00424  80.4679  93.4106 0023156 199.1721 270.4819 13.69070951705695
Epoch (UTC): 10 December 2016 19:01:15
Eccentricity: 0.0023156
inclination: 80.4679°
perigee height: 986 km
apogee height: 1020 km
right ascension of ascending node: 93.4106°
argument of perigee: 199.1721°
revolutions per day: 13.69070951
mean anomaly at epoch: 270.4819°
orbit number at epoch: 70569

The dashed part of the orbit path shows where the satellite is in the earth's shadow,  

DLR